Content
SEND FEEDBACK

Daily
Averages
Monthly
Summary
United States of America

BUNCH, OKLAHOMA


Home > North America > United States > Oklahoma
Elevation: 880 feet     Latitude: 35 45N     Longitude: 094 43W

WEATHER
 
SELECT A DAY
Number of Records: 325,721;   Date Range: 3/30/01 - 8/12/14
 
SHARE

PRINT THIS DATA

[ ← Previous Day ]
WEATHER ALMANAC - JANUARY 3, 2013
[ Next Day → ]
[ °C ]   °F
Weather ElementAverageHighLow
Temperature29.5 °F42.8 °F (1:35 pm)17.6 °F (3:15 am)
Dewpoint24.8 °F32 °F (11:15 am)17.6 °F (2:15 am)
Humidity84.6 %100 % (12:35 am)53 % (3:55 pm)
Barometer30.40 in30.46 in (10:15 am)30.30 in (12:35 am)
Wind Speed0.8 mph8.1 mph (1:35 pm)
Weather ElementAverage
Visibility8.2 mi
Wind DirectionENE (55.7 °)

Weather ElementTotal
Precipitation---
Heating Degree Days34.8 (Base 65)
Averaged from 70 records on January 3, 2013
WEATHER CONDITIONS BREAKOUT
WIND DIRECTION BREAKOUT
WEATHER BY HOUR - JANUARY 3, 2013
[ °C ]   °F
Local TimeTemperatureDewpointHumidityBarometerVisibilityWind DirectionWind SpeedGust SpeedPrecipitationEventsConditions
12:35 AM21.2 °F21.2 °F100 %30.30 in5.0 miCalmClear
1:15 AM19.4 °F19.4 °F100 %30.30 in7.0 miCalmClear
1:35 AM21.2 °F19.4 °F93 %30.31 in5.0 miCalmClear
1:55 AM21.2 °F19.4 °F93 %30.31 in7.0 miCalmClear
2:15 AM19.4 °F17.6 °F93 %30.32 in5.0 miCalmClear
2:35 AM19.4 °F19.4 °F100 %30.33 in4.0 miCalmClear
2:55 AM19.4 °F19.4 °F100 %30.33 in5.0 miCalmClear
3:15 AM17.6 °F17.6 °F100 %30.34 in5.0 miCalmClear
3:35 AM19.4 °F19.4 °F100 %30.34 in5.0 miCalmClear
3:55 AM21.2 °F21.2 °F100 %30.35 in7.0 miCalmClear
4:15 AM21.2 °F21.2 °F100 %30.35 in7.0 miCalmClear
4:35 AM19.4 °F17.6 °F93 %30.36 in7.0 miCalmClear
4:55 AM19.4 °F17.6 °F93 %30.36 in5.0 miCalmClear
5:15 AM19.4 °F17.6 °F93 %30.36 in5.0 miCalmClear
5:35 AM19.4 °F19.4 °F100 %30.36 in5.0 miCalmClear
5:55 AM19.4 °F19.4 °F100 %30.37 in5.0 miCalmClear
6:15 AM21.2 °F21.2 °F100 %30.37 in7.0 miCalmClear
6:35 AM19.4 °F19.4 °F100 %30.38 in7.0 miCalmClear
6:55 AM19.4 °F19.4 °F100 %30.38 in7.0 miCalmClear
7:15 AM21.2 °F19.4 °F93 %30.39 in7.0 miCalmClear
7:35 AM21.2 °F19.4 °F93 %30.40 in5.0 miCalmClear
7:55 AM19.4 °F19.4 °F100 %30.40 in5.0 miCalmClear
8:15 AM19.4 °F19.4 °F100 %30.41 in5.0 miCalmClear
8:35 AM23.0 °F23.0 °F100 %30.42 in4.0 miCalmClear
8:55 AM24.8 °F23.0 °F93 %30.43 in5.0 miCalmClear
9:15 AM26.6 °F26.6 °F100 %30.43 in5.0 miCalmClear
9:35 AM28.4 °F28.4 °F100 %30.44 in5.0 miCalmClear
9:55 AM30.2 °F28.4 °F93 %30.45 in7.0 miCalmClear
10:15 AM32.0 °F28.4 °F87 %30.46 in7.0 miCalmClear
10:35 AM32.0 °F30.2 °F93 %30.46 in10.0 miCalmClear
10:55 AM33.8 °F30.2 °F87 %30.46 in10.0 miCalmClear
11:15 AM35.6 °F32.0 °F87 %30.45 in10.0 miCalmClear
11:35 AM35.6 °F32.0 °F87 %30.45 in10.0 miWSW (250°)3.5 mphClear
11:55 AM37.4 °F32.0 °F81 %30.44 in10.0 miNW (310°)3.5 mphClear
12:15 PM37.4 °F30.2 °F75 %30.42 in10.0 miCalmClear
12:35 PM41.0 °F32.0 °F70 %30.41 in10.0 miCalmClear
12:55 PM41.0 °F30.2 °F65 %30.40 in10.0 miWNW (300°)4.6 mphClear
1:15 PM41.0 °F30.2 °F65 %30.39 in10.0 miWest (280°)3.5 mphClear
1:35 PM42.8 °F30.2 °F61 %30.39 in10.0 miNorth (350°)8.1 mphScattered Clouds
1:55 PM42.8 °F30.2 °F61 %30.38 in10.0 miNNW (340°)3.5 mphScattered Clouds
2:15 PM42.8 °F30.2 °F61 %30.38 in10.0 miCalmClear
2:35 PM42.8 °F28.4 °F57 %30.38 in10.0 miNW (320°)3.5 mphClear
2:55 PM42.8 °F28.4 °F57 %30.39 in10.0 miCalmClear
3:15 PM42.8 °F28.4 °F57 %30.39 in10.0 miCalmClear
3:35 PM42.8 °F28.4 °F57 %30.39 in10.0 miCalmClear
3:55 PM42.8 °F26.6 °F53 %30.39 in10.0 miNW (320°)3.5 mphClear
4:15 PM41.0 °F26.6 °F57 %30.40 in10.0 miWNW (290°)3.5 mphClear
4:35 PM41.0 °F26.6 °F57 %30.40 in10.0 miWest (280°)4.6 mphClear
4:55 PM39.2 °F24.8 °F56 %30.40 in10.0 miNW (310°)4.6 mphClear
5:15 PM35.6 °F24.8 °F65 %30.41 in10.0 miWest (280°)3.5 mphClear
5:35 PM35.6 °F26.6 °F70 %30.40 in10.0 miWest (270°)4.6 mphClear
5:55 PM33.8 °F26.6 °F75 %30.41 in10.0 miCalmClear
6:15 PM32.0 °F26.6 °F80 %30.41 in10.0 miCalmClear
6:35 PM30.2 °F24.8 °F80 %30.42 in10.0 miCalmClear
6:55 PM28.4 °F24.8 °F86 %30.42 in10.0 miCalmClear
7:15 PM28.4 °F24.8 °F86 %30.42 in10.0 miCalmClear
7:35 PM28.4 °F23.0 °F80 %30.42 in10.0 miCalmMostly Cloudy
7:55 PM28.4 °F26.6 °F93 %30.43 in10.0 miCalmOvercast
8:15 PM30.2 °F26.6 °F86 %30.43 in10.0 miCalmOvercast
8:35 PM28.4 °F26.6 °F93 %30.43 in10.0 miCalmOvercast
8:55 PM30.2 °F26.6 °F86 %30.43 in10.0 miCalmOvercast
9:15 PM32.0 °F26.6 °F80 %30.43 in10.0 miCalmMostly Cloudy
9:35 PM30.2 °F26.6 °F86 %30.43 in10.0 miCalmScattered Clouds
9:55 PM28.4 °F26.6 °F93 %30.43 in10.0 miCalmScattered Clouds
10:15 PM30.2 °F26.6 °F86 %30.44 in10.0 miCalmScattered Clouds
10:35 PM30.2 °F26.6 °F86 %30.44 in10.0 miCalmClear
10:55 PM30.2 °F26.6 °F86 %30.45 in10.0 miCalmMostly Cloudy
11:15 PM30.2 °F26.6 °F86 %30.45 in10.0 miCalmOvercast
11:35 PM30.2 °F26.6 °F86 %30.44 in10.0 miCalmMostly Cloudy
11:55 PM28.4 °F26.6 °F93 %30.45 in10.0 miCalmMostly Cloudy
Hourly data recorded from KTQH, located miles away from Bunch, Oklahoma







STORIES FROM OUR PARTNERS